^^
Station Historical Data
 
Daily Summary for February 22, 2018 Units:  Metric    English   Both
« Previous Day
Next Day »
Daily Weekly Monthly Yearly Custom
  Current: High: Low: Average:
Temperature: 22.8 °C -17.8 °C 22.8 °C 23.2 °C
Dew Point: 8.9 °C -17.8 °C 3.4 °C 5.7 °C
Humidity: 41% Humidity% 25% 31%
Wind Speed: 3.2km/h 0km/h 0km/h 4km/h
Wind Gust: 12.9km/h 0km/h - -
WindENE - - SE
Pressure: 1000.6 hPa 0 hPa 1000.6 hPa -
Precipitation: 0 mm      
Historical Graphs
 
 
Tabular Data for February 22, 2018
Time Temperature Dew Point Pressure Wind Wind Speed Wind Gust Humidity Rainfall Rate (Hourly) solar Conditions
-17.8 °C -17.8 °C 0 hPa Calm     Humidity% 0 mm SolarRadiationWatts/m^2 W/m2 Conditions
00:04 25.2 °C 4.9 °C 1001.9 hPa Calm   6.4 km/h 27% 0 mm 0.0 W/m2
00:09 25.2 °C 4.9 °C 1001.9 hPa Calm   6.4 km/h 27% 0 mm 0.0 W/m2
00:14 25.2 °C 4.9 °C 1001.9 hPa SE 4.7 km/h 8 km/h 27% 0 mm 0.0 W/m2
00:20 25.2 °C 4.9 °C 1001.6 hPa Calm   6.4 km/h 27% 0 mm 0.0 W/m2
00:25 25.1 °C 4.8 °C 1001.9 hPa SE 1.4 km/h 6.4 km/h 27% 0 mm 0.0 W/m2
00:30 24.9 °C 4.6 °C 1001.9 hPa SE 6.4 km/h 9.7 km/h 27% 0 mm 0.0 W/m2
00:35 24.8 °C 3.4 °C 1001.9 hPa SE 4.7 km/h 9.7 km/h 25% 0 mm 0.0 W/m2
00:40 24.9 °C 3.5 °C 1001.9 hPa SE 3.2 km/h 6.4 km/h 25% 0 mm 0.0 W/m2
00:45 24.9 °C 3.5 °C 1001.9 hPa ESE 4.7 km/h 12.9 km/h 25% 0 mm 0.0 W/m2
00:50 24.9 °C 3.5 °C 1001.9 hPa SE 1.4 km/h 3.2 km/h 25% 0 mm 0.0 W/m2
00:55 24.9 °C 4.1 °C 1001.9 hPa ESE 3.2 km/h 6.4 km/h 26% 0 mm 0.0 W/m2
01:00 24.8 °C 4 °C 1001.9 hPa SE 1.4 km/h 8 km/h 26% 0 mm 0.0 W/m2
01:05 24.8 °C 4.5 °C 1001.9 hPa Calm   6.4 km/h 27% 0 mm 0.0 W/m2
01:10 24.7 °C 5.5 °C 1001.9 hPa SE 1.4 km/h 4.8 km/h 29% 0 mm 0.0 W/m2
01:16 24.7 °C 6.4 °C 1001.6 hPa East 6.4 km/h 8 km/h 31% 0 mm 0.0 W/m2
01:21 24.7 °C 6.9 °C 1001.6 hPa ESE 13 km/h 14.5 km/h 32% 0 mm 0.0 W/m2
01:26 24.7 °C 7.3 °C 1001.6 hPa ESE 11.1 km/h 22.5 km/h 33% 0 mm 0.0 W/m2
01:29 24.7 °C 7.3 °C 1001.6 hPa ENE 3.2 km/h 17.7 km/h 33% 0 mm 0.0 W/m2
01:34 24.7 °C 7.3 °C 1001.2 hPa ESE 6.4 km/h 16.1 km/h 33% 0 mm 0.0 W/m2
01:39 24.6 °C 7.3 °C 1001.2 hPa ESE 9.7 km/h 12.9 km/h 33% 0 mm 0.0 W/m2
01:44 24.6 °C 7.3 °C 1001.2 hPa SE 6.4 km/h 17.7 km/h 33% 0 mm 0.0 W/m2
01:49 24.4 °C 7.5 °C 1001.2 hPa East 1.4 km/h 9.7 km/h 34% 0 mm 0.0 W/m2
01:54 24.4 °C 7.5 °C 1001.2 hPa ESE 3.2 km/h 9.7 km/h 34% 0 mm 0.0 W/m2
02:00 24.2 °C 7.3 °C 1001.2 hPa NNW 3.2 km/h 11.3 km/h 34% 0 mm 0.0 W/m2
02:05 24.2 °C 7.8 °C 1000.9 hPa Calm   4.8 km/h 35% 0 mm 0.0 W/m2
02:10 24 °C 7.6 °C 1000.9 hPa Calm   8 km/h 35% 0 mm 0.0 W/m2
02:15 23.8 °C 7.8 °C 1000.9 hPa ESE 6.4 km/h 12.9 km/h 36% 0 mm 0.0 W/m2
02:20 23.7 °C 7.7 °C 1000.9 hPa ENE 1.4 km/h 8 km/h 36% 0 mm 0.0 W/m2
02:25 23.6 °C 7.7 °C 1000.9 hPa East 4.7 km/h 8 km/h 36% 0 mm 0.0 W/m2
02:30 23.4 °C 7.9 °C 1000.9 hPa East 3.2 km/h 6.4 km/h 37% 0 mm 0.0 W/m2
02:35 23.2 °C 7.7 °C 1000.6 hPa NNE 4.7 km/h 9.7 km/h 37% 0 mm 0.0 W/m2
02:40 23.1 °C 8 °C 1000.6 hPa ESE 1.4 km/h 12.9 km/h 38% 0 mm 0.0 W/m2
02:45 22.9 °C 8.2 °C 1000.6 hPa NNW 11.1 km/h 11.3 km/h 39% 0 mm 0.0 W/m2
02:51 22.9 °C 8.6 °C 1000.6 hPa NNW 11.1 km/h 11.3 km/h 40% 0 mm 0.0 W/m2
02:56 22.8 °C 8.9 °C 1000.6 hPa ESE 6.4 km/h 19.3 km/h 41% 0 mm 0.0 W/m2
03:01 22.8 °C 8.9 °C 1000.6 hPa ENE 3.2 km/h 12.9 km/h 41% 0 mm 0.0 W/m2
Olympia, Windhoek, Namibia
Compliments of Weather Underground - 2 mb